Location: Unspecified
(0.0000°N, 0.0000°E)
Time: 21:16:01
(UTC+00:00)

Transit 4A - Pass Details

Date: 02 June 2022
Orbit: 864 x 980 km, 66.8° (Epoch: 26 June)

Event Time Altitude Azimuth Distance (km) Brightness Sun altitude
Rises 23:23:31 0° 175° (S) 3,574 - -66.2°
Reaches altitude 10° 23:26:32 10° 161° (SSE) 2,649 - -66.4°
Maximum altitude 23:31:21 24° 109° (ESE) 1,872 - -66.8°
Drops below altitude 10° 23:36:15 10° 58° (ENE) 2,697 - -67.1°
Sets 23:39:20 0° 45° (NE) 3,653 - -67.3°
